Torna al catalogo

SLS DEB

AttivoLEO
NORAD 55905·DEBRIS·🇺🇸 United States

Lanciato Nov 16, 2022 da Cape Canaveral Space Force Station

Loading…

Prossimi Passaggi (prossime 24 ore)

TLE

AggiornatoSource: Space-Track

Epoca: Sep 14, 2026, 14:34 UTC

1 55905U 22156E   26257.60696838  .00114209  00000-0  61965-2 0  9994
2 55905  30.4672  25.8645 0824961  61.3568 306.7483 13.79476483166474

Traccia SLS DEB in tempo reale con AllMySat

Download on the App Store